Regional Weather Roundup
Issued by NWS Wakefield, VA

Home | Current Version | Previous Version | Graphics & Text | Print | Product List | Glossary On
Versions: 1 2 3 4 5 6 7 8 9 10 11 12 13 14 15 16 17 18 19 20 21 22 23 24 25 26 27 28 29 30 31 32 33 34 35 36 37 38 39 40 41 42 43 44 45 46 47 48 49 50
000
ASUS41 KAKQ 291513
RWRAKQ

REGIONAL WEATHER ROUNDUP
NATIONAL WEATHER SERVICE WAKEFIELD VA
1100 AM EDT SUN MAR 29 2015

Note: "fair" indicates few or no clouds below 12,000 feet with no
significant weather and/or obstructions to visibility. * = Denotes
station may not report precipitation (e.g., rain,snow,etc.),
thunder or fog.

VAZ042-051-052>054-056-291600-
NORTHERN VIRGINIA

CITY           SKY/WX    TMP DP  RH WIND       PRES   REMARKS
WASH NATIONAL  SUNNY     37   9  31 NW10G16   30.43R
DULLES         SUNNY     32   7  35 N10       30.41R WCI  24
FORT BELVOIR   SUNNY     34   7  31 NW10G23   30.42R
QUANTICO       SUNNY     36   6  28 N9G22     30.44R
FREDERICKSBRG* SUNNY     36   9  32 NW10      30.43R
STAFFORD*      SUNNY     33   4  28 W8        30.47R
WARRENTON      SUNNY     36  14  40 N10       30.41S
CULPEPER*      SUNNY     36   3  25 N9        30.42S
MANASSAS*      SUNNY     34   9  35 N9G16     30.43R
LEESBURG*      SUNNY     34  12  40 N13       30.42R WCI  25
WINCHESTER     SUNNY     34  -2  21 W6        30.38F
FRONT ROYAL*   FAIR      34   3  27 NW3       30.38S
LURAY*         FAIR      36   5  27 CALM      30.37F
$$

VAZ048-049-060>072-079>083-291600-
CENTRAL AND SOUTH CENTRAL VIRGINIA

CITY           SKY/WX    TMP DP  RH WIND       PRES   REMARKS
RICHMOND       SUNNY     37   5  26 NW14G21   30.42S
CHESTERFIELD*  NOT AVBL
PETERSBURG*    SUNNY     38   4  24 N8G16     30.43S
HANOVER        SUNNY     35   7  31 NW10G17   30.43S
TAPPAHANNOCK*  SUNNY     35   2  24 W8        30.41S
QUINTON*       FAIR      34   7  32 NW9G18    30.42S
CHARLOTTSVILLE SUNNY     36  -1  21 VRB7      30.39R
GORDONSVILLE*  FAIR      34   1  24 N6        30.41R
ORANGE*        SUNNY     36   3  25 NW5       30.42S
LOUISA*        SUNNY     36   7  30 NW7       30.40R
BUMPASS*       FAIR      32   4  30 W5        30.41S
FARMVILLE*     SUNNY     37   5  26 CALM      30.41S
CREWE*         FAIR      35   3  25 MISG      30.42R
FORT PICKETT*  FAIR      35  10  35 NW8       30.42S
CHASE CITY*    FAIR      38  11  33 N7        30.42S
CLARKSVILLE*   FAIR      36  10  35 W5        30.42F
SOUTH HILL*    SUNNY     34  10  36 W6        30.48S
LAWRENCEVILLE* FAIR      36  12  38 NW7       30.42S
EMPORIA*       SUNNY     34  10  37 NW6       30.45S
$$

VAZ088>098-291600-
SOUTHEAST VIRGINIA

CITY           SKY/WX    TMP DP  RH WIND       PRES   REMARKS
NORFOLK        SUNNY     34   8  33 N10G20    30.40S
VIRGINIA BEACH MOSUNNY   37  13  37 NW17G23   30.39S
NORFOLK NAVAL  SUNNY     40   9  28 NW13      30.42S
WEST POINT*    SUNNY     38   2  22 W9        30.44R
SALUDA*        FAIR      34  13  41 NW12      30.40R
NEWPORT NEWS   NOT AVBL
LANGLEY AFB    SUNNY     35   8  33 NW12      30.40R
FORT EUSTIS    SUNNY     35  12  38 N8        30.39S
WILLIAMSBURG*  SUNNY     39  10  30 NW9G17    30.42S
HR EXEC AP*    FAIR      36  10  35 N7        30.43R
FRANKLIN*      SUNNY     35   8  33 NW9       30.43S
WAKEFIELD      SUNNY     36   7  29 VRB5      30.42S
$$

VAZ020-022-025-037-045-291600-
WEST CENTRAL AND SOUTHWEST VIRGINIA

CITY           SKY/WX    TMP DP  RH WIND       PRES   REMARKS
STAUNTON*      SUNNY     32   2  27 CALM      30.39S
WAYNESBORO*    FAIR      31  -1  24 N5        30.35F
HOT SPRINGS VA SUNNY     24  -5  27 NW8       30.22R
LYNCHBURG      SUNNY     35   4  27 VRB5      30.40F
DANVILLE       SUNNY     39   8  27 NE8       30.43S
SOUTH BOSTON*  FAIR      37   6  27 NE5       30.43F
MARTINSVILLE   SUNNY     38   5  25 CALM      30.44S
ROANOKE        SUNNY     35   3  26 VRB3      30.41S
BLACKSBURG     SUNNY     30   5  35 CALM      30.38S
DUBLIN*        SUNNY     33   7  32 SW5       30.36F
MARION*        SUNNY     35  -1  22 SW9       30.36S
HILLSVILLE*    SUNNY     31   6  34 SW5       30.32F
RICHLANDS*     FAIR      31   5  32 CALM      30.33R
WISE*          SUNNY     36   9  32 S3        30.32F
ABINGDON*      SUNNY     37   7  28 CALM      30.36S
$$

MDZ021>025-VAZ099-100-291600-
SOUTHERN MARYLAND AND THE DELMARVA PENINSULA

CITY           SKY/WX    TMP DP  RH WIND       PRES   REMARKS
PATUXENT RIVER SUNNY     34   7  32 NW15      30.39R WCI  24
BAY BRIDGE APT   N/A     32  10  40 NW12      30.40R WCI  23
LEONARDTOWN    SUNNY     34   5  29 N5        30.41R
DOVER          SUNNY     35   9  34 N14       30.35R
GEORGETOWN     SUNNY     35   7  31 N10G16    30.35S
EASTON         SUNNY     36  14  41 N13G25    30.41R
CAMBRIDGE      SUNNY     36  18  48 NW12      30.37S
SALISBURY      SUNNY     34  13  41 NW9G23    30.35S
OCEAN CITY     SUNNY     34  10  37 N15G24    30.34F WCI  24
WALLOPS ISLAND SUNNY     36  11  35 N13       30.36S
ACCOMACK*      SUNNY     34  14  44 NW13G26   30.38R WCI  25
$$

NCZ012>017-030>032-291600-
NORTH CENTRAL AND EASTERN NORTH CAROLINA

CITY           SKY/WX    TMP DP  RH WIND       PRES   REMARKS
ROANOKE RAPIDS FAIR      36  10  35 N5        30.44S
RALEIGH        SUNNY     38   9  30 VRB5      30.45R
ELIZABETH CITY SUNNY     36  13  38 NW12G21   30.41S
AHOSKIE*       SUNNY     34  10  35 N9        30.44S
EDENTON*       SUNNY     37  10  33 N15G23    30.42S
CURRITUCK*     SUNNY     35   6  29 N12G20    30.40S
KILL DEVIL HLS SUNNY     36  12  37 NW9G17    30.38S
MANTEO         SUNNY     35  13  39 N10G17    30.40S
CAPE HATTERAS  SUNNY     38  13  35 N9G22     30.39S
TARBORO*       FAIR      38  11  33 N13       30.45S
GOLDSBORO      SUNNY     38  13  34 VRB6      30.43R
WASHINGTON     SUNNY     36  14  41 N9G20     30.44S
GREENVILLE     SUNNY     37  12  35 N6        30.44S
NEW BERN       SUNNY     39  14  36 NW10G21   30.44S
WILMINGTON     SUNNY     40  11  30 N7G17     30.45S
$$

VAZ048-291600-
ELSEWHERE

CITY           SKY/WX    TMP DP  RH WIND       PRES   REMARKS
HARRISBURG PA  SUNNY     34   9  35 W12       30.37R
BALTIMORE      SUNNY     35   7  31 NW7       30.38R
ANNAPOLIS      SUNNY     33  10  38 NW10      30.39R WCI  25
ANDREWS AFB    SUNNY     34   8  34 N9        30.39R
PHILADELPHIA   SUNNY     35   6  29 N9G18     30.35R
HENDERSON NC   SUNNY     37   6  26 N3        30.42S
GREENSBORO     SUNNY     37   4  25 CALM      30.42R
ROCKY MOUNT    SUNNY     39  12  33 N10       30.45R
$$

VAZ100-291600-
MARINE

STATION/POSITION TIME  TEMP    WIND        PRES    WAVE   SWELL
                       AIR SEA DIR/SP/G            HT/PER HT/PER
                 (UTC) (F)     (DEG/KT/KT) (MB)    (FT/S) (FT/S)
BRANDYWINE LGT   1406   29 39  350/ 18/ 25 1027.1R
CAPE MAY NJ      1400   31 42  340/ 10/ 17 1026.7R
LEWES DE         1400   30 41  340/ 19/ 23 1027.3R
15NM E FENWICK I 1450   31 39              1026.4R   5/ 5
OCEAN-CITY-INLET 1406   31 39  360/ 15/ 19 1027.2R
WACHAPREAGUE VA  1400   33 41  360/  9/ 14 1028.2R
THOMAS POINT MD  1500                        N/A
COVE POINT MD    1400   29     350/ 14/ 17 1028.6R
SOLOMONS ISLAND  1412      42                N/A
BISHOPS HEAD MD  1400   31 35  340/ 15/ 18 1028.1R
PINEY POINT MD   1400          330/ 13/ 16   N/A
CAMBRIDGE MD     1400   30 41  330/ 11/ 15 1028.5R
LEWISETTA VA     1400   31 42              1029.2R
RAPPAHANNOCK LGT 1400          330/ 19/ 23 1029.3R
STINGRAY PT      1500   32 43   10/ 10/ 14   N/A     2/ 3
YORK RVR RNG VA  1400   31     350/ 12/ 15 1028.8R
YORKTOWN VA      1412   31 45  340/ 12/ 16 1029.4R
DOMINION TERM VA 1400   31     320/ 10/ 13 1029.8R
KIPTOPEKE VA     1400      47  350/ 16/ 21   N/A
CHES BAY BRIDGE  1406   31 43  300/ 13/ 17 1029.1R
CAPE HENRY VA    1400   30     330/ 17/ 22 1027.9R
CHESAPEAKE LGHT  1400   31     330/ 18/ 20 1029.2R
WILLOUBY STN VA  1400   31     340/ 13/ 16 1030.1R
S CRANEY ISL VA  1400          320/  6/  9 1029.7R
CAPE HENRY BUOY  1428      40                N/A     4/ 5
1ST LANDING BUOY 1500   32     330/ 12/ 17 1029.0R   2/ 3
OFFSHORE WE BUOY 1411      40                N/A     5/ 6   2/10
64NM E OF VA BCH 1450   34 50  330/ 21/ 25 1027.4R   6/ 6   2/10
DUCK PIER NC     1400   32 41  330/ 15/ 19 1028.1R
44056 DUCK FRF   1411      42                N/A     4/ 6
OREGON INLET NC  1400   34 44  340/ 14/ 21 1028.9R
HATTERAS NC      1406   36 48  340/ 19/ 25 1029.3R
CAPE LOOKOUT NC  1500   38     350/ 16/ 18 1029.9R
$$


USA.gov is the U.S. government's official web portal to all federal, state and local government web resources and services.